Location: Finkenwalde
(53.3770°N, 14.6418°E)
Time: 09:43:59
(UTC+00:00)

BlueWalker 3 - Pass Details

Date: 05 February 2023
Orbit: 497 x 515 km, 53.2° (Epoch: 19 March)

Event Time Altitude Azimuth Distance (km) Brightness Sun altitude
Rises 17:55:38 0° 280° (W) 2,603 7.1 -18.6°
Reaches altitude 10° 17:57:49 10° 278° (W) 1,721 5.9 -18.9°
Maximum altitude 18:01:42 75° 195° (SSW) 532 2.0 -19.5°
Enters shadow 18:02:28 54° 127° (SE) 621 2.0 -19.6°
